Location: Unspecified
(0.0000°N, 0.0000°E)
Time: 20:24:58
(UTC+00:00)

A-11 Canister half - All Passes

Search period start: 02 August 2015 00:00
Search period end: 12 August 2015 00:00
Orbit: 1517 x 1683 km, 47.2° (Epoch: 01 August)

Date Brightness Start Highest point End Pass type
(mag) Time Alt. Az. Time Alt. Az. Time Alt. Az.
02 Aug - 07:20:30 10° SSE 07:23:54 13° SE 07:28:08 10° ESE daylight
02 Aug - 09:20:00 10° SSW 09:29:28 74° SE 09:39:19 10° NE daylight
02 Aug - 11:27:17 10° W 11:34:45 23° NW 11:41:56 10° N daylight
02 Aug - 20:07:45 10° NNW 20:16:10 32° NE 20:24:35 10° ESE visible
02 Aug - 22:11:39 10° NW 22:21:12 55° SW 22:30:21 10° SSE visible
03 Aug - 06:58:47 10° SSE 07:00:52 11° SE 07:03:52 10° ESE daylight
03 Aug - 08:57:10 10° SSW 09:06:35 68° SE 09:16:20 10° NE daylight
03 Aug - 11:04:01 10° W 11:11:46 26° NW 11:19:19 10° N daylight
03 Aug - 19:45:04 10° N 19:53:11 30° NE 20:01:25 10° ESE visible
03 Aug - 21:48:37 10° NW 21:58:17 60° SW 22:07:35 10° SSE visible
04 Aug - 08:34:22 10° SSW 08:43:40 63° SE 08:53:20 10° NE daylight
04 Aug - 10:40:47 10° WSW 10:48:47 28° NW 10:56:40 10° N daylight
04 Aug - 19:22:23 10° N 19:30:13 27° NE 19:38:12 10° ESE visible
04 Aug - 21:25:36 10° NW 21:35:23 65° SW 21:44:47 10° SSE visible
04 Aug - 23:39:12 10° SW 23:41:10 10° SW 23:42:12 10° SW night (unlit)
05 Aug - 08:11:35 10° SSW 08:20:46 57° SE 08:30:19 10° NE daylight
05 Aug - 10:17:35 10° WSW 10:25:49 31° NW 10:34:00 10° N daylight
05 Aug - 18:59:45 10° N 19:07:13 25° NE 19:14:57 10° E visible
05 Aug - 21:02:36 10° NW 21:12:28 70° SW 21:21:59 10° SSE visible
05 Aug - 23:14:26 10° WSW 23:18:08 12° SW 23:20:58 10° SSW visible
06 Aug - 07:48:49 10° SSW 07:57:52 52° SE 08:07:16 10° NE daylight
06 Aug - 09:54:26 10° WSW 10:02:51 33° NW 10:11:17 10° NNE daylight
06 Aug - 18:37:08 10° N 18:44:14 23° NE 18:51:39 10° E visible
06 Aug - 20:39:37 10° NW 20:49:34 76° SW 20:59:09 10° SE visible
06 Aug - 22:50:22 10° WSW 22:55:07 14° SW 22:59:02 10° SSW visible
07 Aug - 07:26:05 10° SSW 07:34:58 48° SE 07:44:12 10° ENE daylight
07 Aug - 09:31:18 10° WSW 09:39:54 36° NW 09:48:34 10° NNE daylight
07 Aug - 18:14:34 10° N 18:21:13 21° NE 18:28:17 10° E visible
07 Aug - 20:16:39 10° NW 20:26:40 82° SW 20:36:18 10° SE visible
07 Aug - 22:26:34 10° W 22:32:06 15° SW 22:36:52 10° SSW visible
08 Aug - 07:03:22 10° SSW 07:12:03 44° SE 07:21:07 10° ENE daylight
08 Aug - 09:08:13 10° WSW 09:16:57 40° NW 09:25:49 10° NNE daylight
08 Aug - 17:52:03 10° N 17:58:12 19° NE 18:04:51 10° E daylight
08 Aug - 19:53:43 10° NW 20:03:44 89° SW 20:13:27 10° SE visible
08 Aug - 22:02:55 10° W 22:09:06 17° SW 22:14:33 10° S visible
09 Aug - 06:40:39 10° SSW 06:49:08 40° SE 06:58:00 10° ENE daylight
09 Aug - 08:45:09 10° WSW 08:54:02 43° NW 09:03:03 10° NNE daylight
09 Aug - 17:29:35 10° N 17:35:10 17° NE 17:41:21 10° E daylight
09 Aug - 19:30:47 10° NW 19:40:50 85° NE 19:50:34 10° SE visible
09 Aug - 21:39:23 10° W 21:46:07 19° SW 21:52:09 10° S visible
10 Aug - 06:17:58 10° SSW 06:26:13 36° SE 06:34:52 10° ENE daylight
10 Aug - 08:22:07 10° WSW 08:31:06 47° NW 08:40:16 10° NNE daylight
10 Aug - 17:07:13 10° NNE 17:12:08 15° NE 17:17:44 10° ENE daylight
10 Aug - 19:07:52 10° NW 19:17:55 79° NE 19:27:39 10° SE visible
10 Aug - 21:15:55 10° W 21:23:07 21° SW 21:29:41 10° S visible
11 Aug - 05:55:18 10° SSW 06:03:17 33° SE 06:11:41 10° ENE daylight
11 Aug - 07:59:06 10° WSW 08:08:11 51° NW 08:17:28 10° NNE daylight
11 Aug - 16:44:58 10° NNE 16:49:05 14° NE 16:53:58 10° ENE daylight
11 Aug - 18:44:58 10° NNW 18:55:00 73° NE 19:04:44 10° SE visible
11 Aug - 20:52:31 10° W 21:00:09 24° SW 21:07:11 10° S visible
